Time,TemperatureF,DewpointF,PressureIn,WindDirection,WindDirectionDegrees,WindSpeedMPH,WindSpeedGustMPH,Humidity,HourlyPrecipIn,Conditions,Clouds,dailyrainin,SoftwareType,DateUTC
2014-01-11 00:01:00,31.6,28.5,30.25,SW,228,0.0,0.0,88,0.00,,,0.00,VWS V15.00,2014-01-11 05:01:00,
2014-01-11 00:02:00,31.6,28.5,30.25,SW,228,0.0,0.0,88,0.00,,,0.00,VWS V15.00,2014-01-11 05:02:00,
2014-01-11 00:04:00,31.6,28.5,30.26,SW,229,0.0,0.0,88,0.00,,,0.00,VWS V15.00,2014-01-11 05:04:00,
2014-01-11 00:05:00,31.6,28.5,30.26,SW,228,0.0,0.0,88,0.00,,,0.00,VWS V15.00,2014-01-11 05:05:00,
2014-01-11 00:08:00,31.6,28.5,30.26,SW,229,0.0,0.0,88,0.00,,,0.00,VWS V15.00,2014-01-11 05:08:00,
2014-01-11 00:13:00,31.6,28.5,30.25,SW,229,0.0,0.0,88,0.00,,,0.00,VWS V15.00,2014-01-11 05:13:00,
2014-01-11 00:18:00,31.6,28.5,30.25,SW,229,0.0,0.0,88,0.00,,,0.00,VWS V15.00,2014-01-11 05:18:00,
2014-01-11 00:23:00,31.6,28.5,30.26,SW,228,0.0,0.0,88,0.00,,,0.00,VWS V15.00,2014-01-11 05:23:00,
2014-01-11 00:28:00,31.7,28.6,30.25,SW,228,0.0,0.0,88,0.00,,,0.00,VWS V15.00,2014-01-11 05:28:00,
2014-01-11 00:33:00,31.7,28.6,30.25,SW,228,0.0,0.0,88,0.00,,,0.00,VWS V15.00,2014-01-11 05:33:00,
2014-01-11 00:38:00,31.7,28.6,30.25,SW,228,0.0,0.0,88,0.00,,,0.00,VWS V15.00,2014-01-11 05:38:00,
2014-01-11 00:43:00,31.7,28.6,30.25,SW,226,0.0,0.0,88,0.00,,,0.00,VWS V15.00,2014-01-11 05:43:00,
2014-01-11 00:48:00,31.6,28.5,30.25,SW,226,0.0,0.0,88,0.00,,,0.00,VWS V15.00,2014-01-11 05:48:00,
2014-01-11 00:53:00,31.7,28.6,30.24,SW,226,0.0,0.0,88,0.00,,,0.00,VWS V15.00,2014-01-11 05:53:00,
2014-01-11 00:58:00,31.7,28.6,30.24,SW,226,0.0,0.0,88,0.00,,,0.00,VWS V15.00,2014-01-11 05:58:00,
2014-01-11 01:03:00,31.7,28.6,30.24,SW,226,0.0,0.0,88,0.00,,,0.00,VWS V15.00,2014-01-11 06:03:00,
2014-01-11 01:08:00,31.7,28.6,30.24,SW,226,0.0,0.0,88,0.00,,,0.00,VWS V15.00,2014-01-11 06:08:00,
2014-01-11 01:13:00,31.7,28.6,30.23,SW,226,0.0,0.0,88,0.00,,,0.00,VWS V15.00,2014-01-11 06:13:00,
2014-01-11 01:18:00,31.8,28.7,30.23,SW,226,0.0,0.0,88,0.00,,,0.00,VWS V15.00,2014-01-11 06:18:00,
2014-01-11 01:23:00,31.8,28.4,30.24,SW,226,0.0,0.0,87,0.00,,,0.00,VWS V15.00,2014-01-11 06:23:00,
2014-01-11 01:28:00,31.9,28.5,30.23,SW,226,0.0,0.0,87,0.00,,,0.00,VWS V15.00,2014-01-11 06:28:00,
2014-01-11 01:33:00,31.9,28.5,30.23,SW,226,0.0,0.0,87,0.00,,,0.00,VWS V15.00,2014-01-11 06:33:00,
2014-01-11 01:38:00,31.9,28.8,30.23,SW,226,0.0,0.0,88,0.00,,,0.00,VWS V15.00,2014-01-11 06:38:00,
2014-01-11 01:43:00,31.9,28.8,30.22,North,11,0.0,0.0,88,0.00,,,0.00,VWS V15.00,2014-01-11 06:43:00,
2014-01-11 01:48:00,31.9,28.8,30.22,NNE,12,0.0,0.0,88,0.00,,,0.00,VWS V15.00,2014-01-11 06:48:00,
2014-01-11 01:53:00,32.0,28.6,30.23,North,11,0.0,0.0,87,0.00,,,0.00,VWS V15.00,2014-01-11 06:53:00,
2014-01-11 01:58:00,32.0,28.6,30.23,NNE,12,0.0,0.0,87,0.00,,,0.00,VWS V15.00,2014-01-11 06:58:00,
2014-01-11 02:03:00,32.1,28.7,30.22,North,11,0.0,0.0,87,0.00,,,0.00,VWS V15.00,2014-01-11 07:03:00,
2014-01-11 02:08:00,32.1,28.7,30.22,North,11,0.0,0.0,87,0.00,,,0.00,VWS V15.00,2014-01-11 07:08:00,
2014-01-11 02:13:00,32.1,28.7,30.23,NNE,12,0.0,0.0,87,0.00,,,0.00,VWS V15.00,2014-01-11 07:13:00,
2014-01-11 02:18:00,32.1,28.7,30.22,NNE,12,0.0,0.0,87,0.00,,,0.00,VWS V15.00,2014-01-11 07:18:00,
2014-01-11 02:23:00,32.0,28.6,30.22,North,11,0.0,0.0,87,0.00,,,0.00,VWS V15.00,2014-01-11 07:23:00,
2014-01-11 02:28:00,32.0,28.6,30.22,NNE,12,0.0,0.0,87,0.00,,,0.00,VWS V15.00,2014-01-11 07:28:00,
2014-01-11 02:34:00,32.1,28.7,30.21,North,11,0.0,0.0,87,0.00,,,0.00,VWS V15.00,2014-01-11 07:34:00,
2014-01-11 02:39:00,32.1,28.7,30.21,North,11,0.0,0.0,87,0.00,,,0.00,VWS V15.00,2014-01-11 07:39:00,
2014-01-11 02:44:00,32.1,28.7,30.21,NNE,12,0.0,0.0,87,0.00,,,0.00,VWS V15.00,2014-01-11 07:44:00,
2014-01-11 02:49:00,32.1,28.7,30.21,NNE,12,0.0,0.0,87,0.00,,,0.00,VWS V15.00,2014-01-11 07:49:00,
2014-01-11 02:54:00,32.1,28.7,30.21,NNE,12,0.0,0.0,87,0.00,,,0.00,VWS V15.00,2014-01-11 07:54:00,
2014-01-11 02:59:00,32.2,28.8,30.21,North,11,0.0,0.0,87,0.00,,,0.00,VWS V15.00,2014-01-11 07:59:00,
2014-01-11 03:04:00,32.2,28.8,30.20,NNE,12,0.0,0.0,87,0.00,,,0.00,VWS V15.00,2014-01-11 08:04:00,
2014-01-11 03:09:00,32.2,28.8,30.20,NNE,12,0.0,0.0,87,0.00,,,0.00,VWS V15.00,2014-01-11 08:09:00,
2014-01-11 03:14:00,32.2,28.8,30.20,North,11,0.0,0.0,87,0.00,,,0.00,VWS V15.00,2014-01-11 08:14:00,
2014-01-11 03:19:00,32.3,28.6,30.19,NNE,16,0.0,0.0,86,0.00,,,0.00,VWS V15.00,2014-01-11 08:19:00,
2014-01-11 03:24:00,32.2,28.5,30.19,NE,37,0.0,0.0,86,0.00,,,0.00,VWS V15.00,2014-01-11 08:24:00,
2014-01-11 03:29:00,32.1,28.7,30.19,NE,37,0.0,0.0,87,0.00,,,0.00,VWS V15.00,2014-01-11 08:29:00,
2014-01-11 03:34:00,32.1,28.4,30.19,NE,37,0.0,0.0,86,0.00,,,0.00,VWS V15.00,2014-01-11 08:34:00,
2014-01-11 03:39:00,32.1,28.4,30.18,NE,37,0.0,0.0,86,0.00,,,0.00,VWS V15.00,2014-01-11 08:39:00,
2014-01-11 03:44:00,32.1,28.4,30.18,NE,37,0.0,0.0,86,0.00,,,0.00,VWS V15.00,2014-01-11 08:44:00,
2014-01-11 03:49:00,32.1,28.4,30.17,NE,37,0.0,0.0,86,0.00,,,0.00,VWS V15.00,2014-01-11 08:49:00,
2014-01-11 03:54:00,32.2,28.5,30.17,NE,37,0.0,0.0,86,0.00,,,0.00,VWS V15.00,2014-01-11 08:54:00,
2014-01-11 03:59:00,32.2,28.5,30.16,NE,37,0.0,0.0,86,0.00,,,0.00,VWS V15.00,2014-01-11 08:59:00,
2014-01-11 04:04:00,32.3,28.6,30.16,NE,37,0.0,0.0,86,0.00,,,0.00,VWS V15.00,2014-01-11 09:04:00,
2014-01-11 04:09:00,32.3,28.6,30.15,NE,37,0.0,0.0,86,0.00,,,0.00,VWS V15.00,2014-01-11 09:09:00,
2014-01-11 04:14:00,32.3,28.6,30.15,NE,37,0.0,0.0,86,0.00,,,0.00,VWS V15.00,2014-01-11 09:14:00,
2014-01-11 04:19:00,32.3,28.6,30.15,NE,37,0.0,0.0,86,0.00,,,0.00,VWS V15.00,2014-01-11 09:19:00,
2014-01-11 04:24:00,32.4,28.4,30.14,NE,37,0.0,0.0,85,0.00,,,0.00,VWS V15.00,2014-01-11 09:24:00,
2014-01-11 04:29:00,32.5,28.5,30.14,NE,37,0.0,0.0,85,0.00,,,0.00,VWS V15.00,2014-01-11 09:29:00,
2014-01-11 04:34:00,32.5,28.5,30.13,NE,37,0.0,0.0,85,0.00,,,0.00,VWS V15.00,2014-01-11 09:34:00,
2014-01-11 04:39:00,32.6,28.6,30.13,NE,39,0.0,0.0,85,0.00,,,0.00,VWS V15.00,2014-01-11 09:39:00,
2014-01-11 04:44:00,32.6,28.6,30.12,NE,37,0.0,0.0,85,0.00,,,0.00,VWS V15.00,2014-01-11 09:44:00,
2014-01-11 04:49:00,32.7,28.7,30.12,NNE,18,0.0,0.0,85,0.00,,,0.00,VWS V15.00,2014-01-11 09:49:00,
2014-01-11 04:54:00,32.8,28.8,30.13,NNE,18,0.0,0.0,85,0.00,,,0.00,VWS V15.00,2014-01-11 09:54:00,
2014-01-11 04:59:00,32.8,28.8,30.12,NNE,18,0.0,0.0,85,0.00,,,0.00,VWS V15.00,2014-01-11 09:59:00,
2014-01-11 05:04:00,32.9,28.9,30.12,NNE,18,0.0,0.0,85,0.00,,-RA,0.00,VWS V15.00,2014-01-11 10:04:00,
2014-01-11 05:09:00,32.9,28.9,30.12,NNE,18,0.0,0.0,85,0.01,,-RA,0.01,VWS V15.00,2014-01-11 10:09:00,
2014-01-11 05:14:00,32.9,28.9,30.11,NNE,18,0.0,0.0,85,0.01,,-RA,0.01,VWS V15.00,2014-01-11 10:14:00,
2014-01-11 05:19:00,32.9,28.9,30.11,NNE,19,0.0,0.0,85,0.01,,-RA,0.01,VWS V15.00,2014-01-11 10:19:00,
2014-01-11 05:24:00,32.9,28.9,30.11,NNE,19,0.0,0.0,85,0.01,,-RA,0.01,VWS V15.00,2014-01-11 10:24:00,
2014-01-11 05:29:00,32.8,28.8,30.10,NNE,18,0.0,0.0,85,0.01,,-RA,0.01,VWS V15.00,2014-01-11 10:29:00,
2014-01-11 05:34:00,32.9,28.9,30.10,NNE,19,0.0,0.0,85,0.01,,-RA,0.01,VWS V15.00,2014-01-11 10:34:00,
2014-01-11 05:39:00,32.9,28.9,30.09,NNE,18,0.0,0.0,85,0.01,,-RA,0.01,VWS V15.00,2014-01-11 10:39:00,
2014-01-11 05:44:00,33.0,29.0,30.09,NNW,348,0.0,0.0,85,0.01,,-RA,0.01,VWS V15.00,2014-01-11 10:44:00,
2014-01-11 05:49:00,33.0,29.0,30.08,North,350,0.0,0.0,85,0.01,,-RA,0.01,VWS V15.00,2014-01-11 10:49:00,
2014-01-11 05:54:00,33.0,29.0,30.08,North,349,0.0,0.0,85,0.01,,-RA,0.01,VWS V15.00,2014-01-11 10:54:00,
2014-01-11 05:59:00,33.1,29.1,30.08,NNW,348,0.0,0.0,85,0.01,,-RA,0.01,VWS V15.00,2014-01-11 10:59:00,
2014-01-11 06:05:00,33.1,29.1,30.08,NNW,348,0.0,0.0,85,0.01,,-RA,0.01,VWS V15.00,2014-01-11 11:05:00,
2014-01-11 06:10:00,33.3,29.3,30.07,North,349,0.0,0.0,85,0.00,,-RA,0.01,VWS V15.00,2014-01-11 11:10:00,
2014-01-11 06:15:00,33.4,29.1,30.07,North,349,0.0,0.0,84,0.00,,-RA,0.01,VWS V15.00,2014-01-11 11:15:00,
2014-01-11 06:20:00,33.6,29.3,30.07,West,280,0.0,0.0,84,0.00,,-RA,0.01,VWS V15.00,2014-01-11 11:20:00,
2014-01-11 06:25:00,33.7,29.4,30.07,West,280,0.0,0.0,84,0.00,,-RA,0.01,VWS V15.00,2014-01-11 11:25:00,
2014-01-11 06:30:00,33.7,29.4,30.06,NW,308,0.0,0.0,84,0.00,,-RA,0.01,VWS V15.00,2014-01-11 11:30:00,
2014-01-11 06:35:00,33.7,29.4,30.05,East,86,0.0,0.0,84,0.00,,-RA,0.01,VWS V15.00,2014-01-11 11:35:00,
2014-01-11 06:40:00,33.5,29.5,30.05,East,86,0.0,0.0,85,0.00,,-RA,0.01,VWS V15.00,2014-01-11 11:40:00,
2014-01-11 06:45:00,33.5,29.5,30.05,East,86,0.0,0.0,85,0.00,,-RA,0.01,VWS V15.00,2014-01-11 11:45:00,
2014-01-11 06:50:00,33.5,29.5,30.04,East,86,0.0,0.0,85,0.00,,-RA,0.01,VWS V15.00,2014-01-11 11:50:00,
2014-01-11 06:55:00,33.6,29.6,30.04,East,86,0.0,0.0,85,0.00,,-RA,0.01,VWS V15.00,2014-01-11 11:55:00,
2014-01-11 07:00:00,33.7,29.4,30.04,East,86,0.0,0.0,84,0.00,,-RA,0.01,VWS V15.00,2014-01-11 12:00:00,
2014-01-11 07:05:00,33.8,29.5,30.04,WSW,253,1.0,1.0,84,0.00,,-RA,0.01,VWS V15.00,2014-01-11 12:05:00,
2014-01-11 07:10:00,34.0,29.7,30.03,WSW,256,0.0,0.0,84,0.00,,-RA,0.01,VWS V15.00,2014-01-11 12:10:00,
2014-01-11 07:15:00,34.1,29.8,30.03,WSW,256,0.0,0.0,84,0.00,,-RA,0.01,VWS V15.00,2014-01-11 12:15:00,
2014-01-11 07:20:00,34.0,29.7,30.02,West,270,0.0,0.0,84,0.00,,-RA,0.01,VWS V15.00,2014-01-11 12:20:00,
2014-01-11 07:25:00,34.0,29.7,30.01,North,355,0.0,0.0,84,0.00,,-RA,0.01,VWS V15.00,2014-01-11 12:25:00,
2014-01-11 07:31:00,34.3,30.0,30.01,NW,325,1.0,1.0,84,0.00,,-RA,0.01,VWS V15.00,2014-01-11 12:31:00,
2014-01-11 07:36:00,34.8,30.5,30.01,NW,325,1.0,1.0,84,0.00,,-RA,0.01,VWS V15.00,2014-01-11 12:36:00,
2014-01-11 07:41:00,35.2,30.9,30.01,NW,324,0.0,0.0,84,0.00,,-RA,0.01,VWS V15.00,2014-01-11 12:41:00,
2014-01-11 07:46:00,35.1,30.8,30.01,NW,325,0.0,0.0,84,0.00,,-RA,0.01,VWS V15.00,2014-01-11 12:46:00,
2014-01-11 07:51:00,34.8,30.5,30.00,NW,324,0.0,0.0,84,0.00,,,0.01,VWS V15.00,2014-01-11 12:51:00,
2014-01-11 07:56:00,34.6,30.3,29.99,NW,325,0.0,0.0,84,0.00,,,0.01,VWS V15.00,2014-01-11 12:56:00,
2014-01-11 08:01:00,34.5,30.5,29.99,NW,324,0.0,0.0,85,0.00,,,0.01,VWS V15.00,2014-01-11 13:01:00,
2014-01-11 08:06:00,34.5,30.5,29.98,NW,325,0.0,0.0,85,0.00,,,0.01,VWS V15.00,2014-01-11 13:06:00,
2014-01-11 08:11:00,34.6,30.3,29.99,NW,325,0.0,0.0,84,0.00,,,0.01,VWS V15.00,2014-01-11 13:11:00,
2014-01-11 08:16:00,34.8,30.5,29.99,NW,325,0.0,0.0,84,0.00,,,0.01,VWS V15.00,2014-01-11 13:16:00,
2014-01-11 08:21:00,34.9,30.6,29.97,NW,325,0.0,0.0,84,0.00,,,0.01,VWS V15.00,2014-01-11 13:21:00,
2014-01-11 08:26:00,34.9,30.6,29.97,NW,325,0.0,0.0,84,0.00,,,0.01,VWS V15.00,2014-01-11 13:26:00,
2014-01-11 08:31:00,34.8,30.5,29.96,NW,325,0.0,0.0,84,0.00,,,0.01,VWS V15.00,2014-01-11 13:31:00,
2014-01-11 08:36:00,35.0,30.7,29.96,NW,325,0.0,0.0,84,0.00,,,0.01,VWS V15.00,2014-01-11 13:36:00,
2014-01-11 08:41:00,35.2,30.9,29.97,NW,324,0.0,0.0,84,0.00,,,0.01,VWS V15.00,2014-01-11 13:41:00,
2014-01-11 08:46:00,35.4,31.1,29.95,NW,325,0.0,0.0,84,0.00,,,0.01,VWS V15.00,2014-01-11 13:46:00,
2014-01-11 08:51:00,35.5,31.1,29.95,NW,324,0.0,0.0,84,0.00,,,0.01,VWS V15.00,2014-01-11 13:51:00,
2014-01-11 08:56:00,35.6,31.2,29.95,NW,325,0.0,0.0,84,0.00,,,0.01,VWS V15.00,2014-01-11 13:56:00,
2014-01-11 09:01:00,35.7,31.4,29.95,NW,325,0.0,0.0,84,0.00,,,0.01,VWS V15.00,2014-01-11 14:01:00,
2014-01-11 09:06:00,35.6,31.2,29.94,NW,324,0.0,0.0,84,0.00,,,0.01,VWS V15.00,2014-01-11 14:06:00,
2014-01-11 09:11:00,35.7,31.4,29.93,NW,325,0.0,0.0,84,0.00,,,0.01,VWS V15.00,2014-01-11 14:11:00,
2014-01-11 09:16:00,35.9,31.5,29.92,NW,324,0.0,0.0,84,0.00,,,0.01,VWS V15.00,2014-01-11 14:16:00,
2014-01-11 09:21:00,36.1,31.7,29.92,NW,325,0.0,0.0,84,0.00,,,0.01,VWS V15.00,2014-01-11 14:21:00,
2014-01-11 09:26:00,36.2,31.8,29.92,NW,325,0.0,0.0,84,0.00,,,0.01,VWS V15.00,2014-01-11 14:26:00,
2014-01-11 09:31:00,36.5,32.1,29.91,NW,324,0.0,0.0,84,0.00,,,0.01,VWS V15.00,2014-01-11 14:31:00,
2014-01-11 09:36:00,36.4,32.0,29.91,NW,325,0.0,0.0,84,0.01,,,0.02,VWS V15.00,2014-01-11 14:36:00,
2014-01-11 09:41:00,36.4,32.0,29.90,NW,325,0.0,0.0,84,0.01,,,0.02,VWS V15.00,2014-01-11 14:41:00,
2014-01-11 09:46:00,36.4,32.0,29.89,NW,325,0.0,0.0,84,0.01,,,0.02,VWS V15.00,2014-01-11 14:46:00,
2014-01-11 09:51:00,36.6,32.2,29.89,NW,325,0.0,0.0,84,0.01,,,0.02,VWS V15.00,2014-01-11 14:51:00,
2014-01-11 09:56:00,37.2,33.1,29.88,NW,324,0.0,0.0,85,0.01,,,0.02,VWS V15.00,2014-01-11 14:56:00,
2014-01-11 10:01:00,38.0,33.9,29.88,NW,325,0.0,0.0,85,0.01,,,0.02,VWS V15.00,2014-01-11 15:01:00,
2014-01-11 10:06:00,39.0,34.9,29.88,SSW,200,0.0,2.0,85,0.02,,,0.03,VWS V15.00,2014-01-11 15:06:00,
2014-01-11 10:11:00,40.5,36.7,29.87,South,176,1.0,1.0,86,0.02,,,0.03,VWS V15.00,2014-01-11 15:11:00,
2014-01-11 10:16:00,42.4,38.5,29.87,SE,136,2.0,2.0,86,0.02,,,0.03,VWS V15.00,2014-01-11 15:16:00,
2014-01-11 10:21:00,43.5,39.6,29.86,WSW,240,0.0,1.0,86,0.03,,,0.04,VWS V15.00,2014-01-11 15:21:00,
2014-01-11 10:26:00,44.2,40.3,29.86,South,184,1.0,3.0,86,0.03,,,0.04,VWS V15.00,2014-01-11 15:26:00,
2014-01-11 10:31:00,44.8,40.9,29.85,ESE,103,1.0,2.0,86,0.04,,,0.05,VWS V15.00,2014-01-11 15:31:00,
2014-01-11 10:36:00,45.5,41.6,29.84,ESE,103,2.0,5.0,86,0.03,,-RA,0.05,VWS V15.00,2014-01-11 15:36:00,
2014-01-11 10:41:00,45.9,42.0,29.84,South,171,1.0,2.0,86,0.03,,-RA,0.05,VWS V15.00,2014-01-11 15:41:00,
2014-01-11 10:46:00,46.1,42.2,29.83,ESE,123,3.0,3.0,86,0.03,,-RA,0.05,VWS V15.00,2014-01-11 15:46:00,
2014-01-11 10:52:00,46.3,42.3,29.82,SW,232,2.0,4.0,86,0.03,,,0.05,VWS V15.00,2014-01-11 15:52:00,
2014-01-11 10:57:00,46.2,42.2,29.82,SE,137,4.0,4.0,86,0.04,,,0.06,VWS V15.00,2014-01-11 15:57:00,
2014-01-11 11:02:00,46.1,42.2,29.82,SW,217,2.0,3.0,86,0.04,,,0.06,VWS V15.00,2014-01-11 16:02:00,
2014-01-11 11:07:00,46.0,42.0,29.81,ESE,111,0.0,2.0,86,0.03,,,0.06,VWS V15.00,2014-01-11 16:07:00,
2014-01-11 11:12:00,45.8,41.9,29.81,SSE,167,1.0,3.0,86,0.03,,,0.06,VWS V15.00,2014-01-11 16:12:00,
2014-01-11 11:17:00,45.8,41.9,29.80,SE,126,2.0,2.0,86,0.03,,,0.06,VWS V15.00,2014-01-11 16:17:00,
2014-01-11 11:22:00,45.7,41.8,29.80,ENE,70,1.0,3.0,86,0.02,,,0.06,VWS V15.00,2014-01-11 16:22:00,
2014-01-11 11:27:00,45.9,42.3,29.79,SW,228,1.0,3.0,87,0.02,,,0.06,VWS V15.00,2014-01-11 16:27:00,
2014-01-11 11:32:00,46.1,42.5,29.78,SSW,207,2.0,4.0,87,0.02,,,0.06,VWS V15.00,2014-01-11 16:32:00,
2014-01-11 11:37:00,46.4,42.8,29.78,SSW,203,2.0,3.0,87,0.01,,,0.06,VWS V15.00,2014-01-11 16:37:00,
2014-01-11 11:42:00,46.4,42.5,29.77,West,263,2.0,3.0,86,0.01,,,0.06,VWS V15.00,2014-01-11 16:42:00,
2014-01-11 11:47:00,46.5,42.8,29.77,SE,139,1.0,2.0,87,0.01,,,0.06,VWS V15.00,2014-01-11 16:47:00,
2014-01-11 11:52:00,46.5,42.5,29.76,SE,124,3.0,3.0,86,0.01,,-RA,0.06,VWS V15.00,2014-01-11 16:52:00,
2014-01-11 11:57:00,46.6,42.6,29.75,ESE,113,2.0,2.0,86,0.00,,-RA,0.06,VWS V15.00,2014-01-11 16:57:00,
2014-01-11 12:02:00,46.7,42.7,29.75,SSW,207,2.0,2.0,86,0.00,,-RA,0.06,VWS V15.00,2014-01-11 17:02:00,
2014-01-11 12:07:00,46.7,42.7,29.75,South,186,0.0,2.0,86,0.00,,-RA,0.06,VWS V15.00,2014-01-11 17:07:00,
2014-01-11 12:12:00,46.8,42.8,29.74,SE,125,1.0,2.0,86,0.00,,-RA,0.06,VWS V15.00,2014-01-11 17:12:00,
2014-01-11 12:17:00,46.8,42.8,29.73,SSE,168,2.0,2.0,86,0.00,,-RA,0.06,VWS V15.00,2014-01-11 17:17:00,
2014-01-11 12:22:00,46.8,42.8,29.72,SE,134,1.0,3.0,86,0.00,,-RA,0.06,VWS V15.00,2014-01-11 17:22:00,
2014-01-11 12:27:00,46.5,42.5,29.72,SE,146,1.0,2.0,86,0.00,,-RA,0.06,VWS V15.00,2014-01-11 17:27:00,
2014-01-11 12:32:00,46.3,42.3,29.71,SSW,207,1.0,3.0,86,0.00,,-RA,0.06,VWS V15.00,2014-01-11 17:32:00,
2014-01-11 12:37:00,46.2,42.2,29.71,SSE,163,2.0,2.0,86,0.00,,,0.06,VWS V15.00,2014-01-11 17:37:00,
2014-01-11 12:42:00,46.2,42.2,29.70,SSE,158,2.0,2.0,86,0.00,,,0.06,VWS V15.00,2014-01-11 17:42:00,
2014-01-11 12:47:00,46.5,42.5,29.69,South,170,3.0,3.0,86,0.00,,,0.06,VWS V15.00,2014-01-11 17:47:00,
2014-01-11 12:52:00,46.6,42.6,29.68,SE,130,2.0,2.0,86,0.00,,,0.06,VWS V15.00,2014-01-11 17:52:00,
2014-01-11 12:57:00,46.7,42.7,29.67,SSE,153,0.0,2.0,86,0.00,,,0.06,VWS V15.00,2014-01-11 17:57:00,
2014-01-11 13:02:00,46.7,42.7,29.66,SSE,167,1.0,3.0,86,0.00,,,0.06,VWS V15.00,2014-01-11 18:02:00,
2014-01-11 13:07:00,46.8,42.8,29.66,SE,139,1.0,2.0,86,0.00,,,0.06,VWS V15.00,2014-01-11 18:07:00,
2014-01-11 13:12:00,46.9,42.9,29.65,SSE,163,2.0,3.0,86,0.00,,,0.06,VWS V15.00,2014-01-11 18:12:00,
2014-01-11 13:17:00,47.3,43.3,29.65,SSE,166,2.0,2.0,86,0.00,,,0.06,VWS V15.00,2014-01-11 18:17:00,
2014-01-11 13:22:00,47.8,43.8,29.65,SE,139,2.0,2.0,86,0.00,,,0.06,VWS V15.00,2014-01-11 18:22:00,
2014-01-11 13:27:00,48.9,44.9,29.64,SSE,155,1.0,5.0,86,0.00,,,0.06,VWS V15.00,2014-01-11 18:27:00,
2014-01-11 13:32:00,49.9,45.9,29.63,WSW,256,3.0,4.0,86,0.00,,,0.06,VWS V15.00,2014-01-11 18:32:00,
2014-01-11 13:37:00,50.8,47.1,29.63,SE,132,1.0,3.0,87,0.00,,,0.06,VWS V15.00,2014-01-11 18:37:00,
2014-01-11 13:42:00,51.0,47.0,29.63,East,92,2.0,3.0,86,0.00,,,0.06,VWS V15.00,2014-01-11 18:42:00,
2014-01-11 13:47:00,51.4,47.4,29.62,SW,218,0.0,3.0,86,0.00,,,0.06,VWS V15.00,2014-01-11 18:47:00,
2014-01-11 13:52:00,51.8,48.1,29.62,SSW,211,1.0,3.0,87,0.00,,,0.06,VWS V15.00,2014-01-11 18:52:00,
2014-01-11 13:57:00,52.6,48.8,29.61,West,274,1.0,4.0,87,0.00,,,0.06,VWS V15.00,2014-01-11 18:57:00,
2014-01-11 14:02:00,52.9,49.1,29.61,SW,227,2.0,4.0,87,0.00,,,0.06,VWS V15.00,2014-01-11 19:02:00,
2014-01-11 14:07:00,53.0,49.2,29.61,West,262,1.0,3.0,87,0.00,,,0.06,VWS V15.00,2014-01-11 19:07:00,
2014-01-11 14:12:00,53.0,49.2,29.61,South,179,2.0,5.0,87,0.00,,,0.06,VWS V15.00,2014-01-11 19:12:00,
2014-01-11 14:17:00,52.8,49.0,29.60,SSE,160,3.0,5.0,87,0.00,,,0.06,VWS V15.00,2014-01-11 19:17:00,
2014-01-11 14:22:00,52.6,48.8,29.60,West,267,3.0,5.0,87,0.00,,,0.06,VWS V15.00,2014-01-11 19:22:00,
2014-01-11 14:27:00,52.4,48.7,29.60,SSW,194,2.0,6.0,87,0.00,,,0.06,VWS V15.00,2014-01-11 19:27:00,
2014-01-11 14:32:00,52.2,48.2,29.59,WSW,240,2.0,4.0,86,0.00,,,0.06,VWS V15.00,2014-01-11 19:32:00,
2014-01-11 14:37:00,52.1,48.4,29.59,East,95,3.0,3.0,87,0.00,,-RA,0.06,VWS V15.00,2014-01-11 19:37:00,
2014-01-11 14:42:00,52.2,48.5,29.58,SSW,208,3.0,7.0,87,0.00,,-RA,0.06,VWS V15.00,2014-01-11 19:42:00,
2014-01-11 14:47:00,52.1,48.0,29.58,ENE,65,2.0,5.0,86,0.00,,-RA,0.06,VWS V15.00,2014-01-11 19:47:00,
2014-01-11 14:52:00,52.1,48.0,29.57,ENE,72,2.0,5.0,86,0.00,,-RA,0.06,VWS V15.00,2014-01-11 19:52:00,
2014-01-11 14:57:00,52.1,48.0,29.56,WSW,249,3.0,5.0,86,0.00,,-RA,0.06,VWS V15.00,2014-01-11 19:57:00,
2014-01-11 15:02:00,51.8,47.8,29.55,SSE,155,2.0,4.0,86,0.00,,-RA,0.06,VWS V15.00,2014-01-11 20:02:00,
2014-01-11 15:07:00,51.7,47.7,29.54,South,170,0.0,3.0,86,0.00,,-RA,0.06,VWS V15.00,2014-01-11 20:07:00,
2014-01-11 15:08:00,51.6,47.6,29.54,ESE,117,2.0,3.0,86,0.00,,-RA,0.06,VWS V15.00,2014-01-11 20:08:00,
2014-01-11 15:13:00,51.6,47.6,29.53,SSW,194,1.0,4.0,86,0.00,,-RA,0.06,VWS V15.00,2014-01-11 20:13:00,
2014-01-11 15:18:00,51.6,47.6,29.53,SSW,200,1.0,4.0,86,0.00,,-RA,0.06,VWS V15.00,2014-01-11 20:18:00,
2014-01-11 15:23:00,51.6,47.6,29.53,WSW,238,1.0,8.0,86,0.00,,-RA,0.06,VWS V15.00,2014-01-11 20:23:00,
2014-01-11 15:28:00,51.5,47.5,29.52,SW,225,4.0,6.0,86,0.00,,-RA,0.06,VWS V15.00,2014-01-11 20:28:00,
2014-01-11 15:33:00,51.4,47.0,29.52,SE,127,4.0,4.0,85,0.00,,-RA,0.06,VWS V15.00,2014-01-11 20:33:00,
2014-01-11 15:38:00,51.4,47.0,29.51,West,277,2.0,5.0,85,0.00,,,0.06,VWS V15.00,2014-01-11 20:38:00,
2014-01-11 15:43:00,51.6,47.2,29.51,SSW,210,2.0,5.0,85,0.00,,,0.06,VWS V15.00,2014-01-11 20:43:00,
2014-01-11 15:48:00,51.7,47.3,29.51,WNW,290,3.0,5.0,85,0.00,,,0.06,VWS V15.00,2014-01-11 20:48:00,
2014-01-11 15:53:00,51.8,47.4,29.50,South,184,2.0,6.0,85,0.00,,,0.06,VWS V15.00,2014-01-11 20:53:00,
2014-01-11 15:58:00,51.9,47.5,29.50,WNW,285,2.0,4.0,85,0.00,,,0.06,VWS V15.00,2014-01-11 20:58:00,
2014-01-11 16:03:00,51.9,47.5,29.50,SE,138,2.0,7.0,85,0.00,,,0.06,VWS V15.00,2014-01-11 21:03:00,
2014-01-11 16:08:00,51.7,47.3,29.50,ENE,58,2.0,5.0,85,0.01,,,0.07,VWS V15.00,2014-01-11 21:08:00,
2014-01-11 16:13:00,51.7,47.3,29.49,ESE,122,3.0,6.0,85,0.01,,,0.07,VWS V15.00,2014-01-11 21:13:00,
2014-01-11 16:18:00,51.5,47.2,29.49,SSE,150,3.0,3.0,85,0.02,,,0.08,VWS V15.00,2014-01-11 21:18:00,
2014-01-11 16:23:00,51.2,46.5,29.49,North,358,1.0,4.0,84,0.02,,,0.08,VWS V15.00,2014-01-11 21:23:00,
2014-01-11 16:28:00,50.9,46.2,29.48,SSE,160,2.0,4.0,84,0.02,,,0.08,VWS V15.00,2014-01-11 21:28:00,
2014-01-11 16:33:00,50.6,46.0,29.47,East,90,4.0,8.0,84,0.02,,,0.08,VWS V15.00,2014-01-11 21:33:00,
2014-01-11 16:35:00,50.5,45.8,29.47,WNW,288,1.0,4.0,84,0.02,,,0.08,VWS V15.00,2014-01-11 21:35:00,
2014-01-11 16:40:00,50.4,45.8,29.46,ESE,114,2.0,7.0,84,0.03,,,0.09,VWS V15.00,2014-01-11 21:40:00,
2014-01-11 16:45:00,50.5,45.8,29.45,North,351,1.0,5.0,84,0.03,,,0.09,VWS V15.00,2014-01-11 21:45:00,
2014-01-11 16:50:00,50.7,46.0,29.44,SW,217,4.0,4.0,84,0.03,,,0.09,VWS V15.00,2014-01-11 21:50:00,
2014-01-11 16:55:00,51.0,46.3,29.44,NW,319,3.0,6.0,84,0.03,,-RA,0.09,VWS V15.00,2014-01-11 21:55:00,
2014-01-11 17:00:00,51.3,46.6,29.43,NNW,341,2.0,3.0,84,0.03,,-RA,0.09,VWS V15.00,2014-01-11 22:00:00,
2014-01-11 17:05:00,51.4,46.7,29.43,SSE,161,3.0,4.0,84,0.03,,-RA,0.09,VWS V15.00,2014-01-11 22:05:00,
2014-01-11 17:10:00,51.4,46.7,29.43,WSW,243,2.0,4.0,84,0.02,,-RA,0.09,VWS V15.00,2014-01-11 22:10:00,
2014-01-11 17:15:00,51.0,46.3,29.43,SSE,167,2.0,3.0,84,0.02,,-RA,0.10,VWS V15.00,2014-01-11 22:15:00,
2014-01-11 17:20:00,50.7,46.0,29.42,South,177,2.0,4.0,84,0.04,,-RA,0.12,VWS V15.00,2014-01-11 22:20:00,
2014-01-11 17:25:00,50.4,45.8,29.42,East,79,2.0,4.0,84,0.05,,-RA,0.13,VWS V15.00,2014-01-11 22:25:00,
2014-01-11 17:30:00,50.1,45.5,29.41,WNW,294,2.0,4.0,84,0.06,,-RA,0.14,VWS V15.00,2014-01-11 22:30:00,
2014-01-11 17:35:00,49.9,45.3,29.41,South,180,2.0,3.0,84,0.07,,-RA,0.15,VWS V15.00,2014-01-11 22:35:00,
2014-01-11 17:40:00,49.7,45.1,29.41,SW,236,2.0,3.0,84,0.08,,-RA,0.17,VWS V15.00,2014-01-11 22:40:00,
2014-01-11 17:45:00,49.5,44.9,29.40,ENE,64,2.0,4.0,84,0.11,,-RA,0.20,VWS V15.00,2014-01-11 22:45:00,
2014-01-11 17:50:00,49.2,44.6,29.39,SSW,203,1.0,4.0,84,0.13,,-RA,0.22,VWS V15.00,2014-01-11 22:50:00,
2014-01-11 17:55:00,49.2,44.6,29.38,SSE,148,1.0,3.0,84,0.13,,-RA,0.22,VWS V15.00,2014-01-11 22:55:00,
2014-01-11 18:00:00,49.2,44.6,29.38,SE,131,1.0,2.0,84,0.14,,-RA,0.23,VWS V15.00,2014-01-11 23:00:00,
2014-01-11 18:05:00,49.0,44.4,29.37,SE,131,2.0,2.0,84,0.14,,-RA,0.23,VWS V15.00,2014-01-11 23:05:00,
2014-01-11 18:10:00,49.0,44.4,29.36,SW,233,3.0,3.0,84,0.14,,-RA,0.23,VWS V15.00,2014-01-11 23:10:00,
2014-01-11 18:15:00,49.0,44.4,29.36,South,189,2.0,3.0,84,0.13,,-RA,0.23,VWS V15.00,2014-01-11 23:15:00,
2014-01-11 18:20:00,48.9,44.3,29.35,WSW,253,0.0,2.0,84,0.12,,-RA,0.23,VWS V15.00,2014-01-11 23:20:00,
2014-01-11 18:25:00,48.8,44.2,29.35,SE,136,0.0,3.0,84,0.10,,-RA,0.23,VWS V15.00,2014-01-11 23:25:00,
2014-01-11 18:30:00,48.9,44.3,29.34,SE,134,2.0,4.0,84,0.09,,-RA,0.23,VWS V15.00,2014-01-11 23:30:00,
2014-01-11 18:35:00,49.1,44.5,29.34,SSE,155,2.0,4.0,84,0.09,,-RA,0.23,VWS V15.00,2014-01-11 23:35:00,
2014-01-11 18:40:00,49.1,44.5,29.34,SW,225,3.0,4.0,84,0.07,,-RA,0.23,VWS V15.00,2014-01-11 23:40:00,
2014-01-11 18:45:00,49.2,44.6,29.33,SSW,207,1.0,2.0,84,0.03,,-RA,0.23,VWS V15.00,2014-01-11 23:45:00,
2014-01-11 18:50:00,49.1,44.5,29.33,SE,135,0.0,3.0,84,0.01,,-RA,0.23,VWS V15.00,2014-01-11 23:50:00,
2014-01-11 18:55:00,49.0,44.4,29.32,SSW,197,0.0,1.0,84,0.01,,,0.23,VWS V15.00,2014-01-11 23:55:00,
2014-01-11 19:00:00,49.0,44.4,29.31,SE,132,1.0,2.0,84,0.00,,,0.23,VWS V15.00,2014-01-12 00:00:00,
2014-01-11 19:05:00,49.0,44.4,29.31,SE,141,0.0,0.0,84,0.00,,,0.23,VWS V15.00,2014-01-12 00:05:00,
2014-01-11 19:10:00,48.9,44.3,29.31,SSE,166,1.0,1.0,84,0.00,,,0.23,VWS V15.00,2014-01-12 00:10:00,
2014-01-11 19:15:00,48.8,44.2,29.30,WSW,246,2.0,2.0,84,0.00,,,0.23,VWS V15.00,2014-01-12 00:15:00,
2014-01-11 19:20:00,48.8,44.5,29.30,SW,231,1.0,1.0,85,0.00,,,0.23,VWS V15.00,2014-01-12 00:20:00,
2014-01-11 19:25:00,48.8,44.5,29.30,East,101,0.0,0.0,85,0.00,,,0.23,VWS V15.00,2014-01-12 00:25:00,
2014-01-11 19:30:00,48.9,44.6,29.30,SE,127,0.0,0.0,85,0.00,,,0.23,VWS V15.00,2014-01-12 00:30:00,
2014-01-11 19:35:00,49.1,44.8,29.30,SW,236,0.0,1.0,85,0.00,,,0.23,VWS V15.00,2014-01-12 00:35:00,
2014-01-11 19:40:00,49.4,45.1,29.30,WSW,246,0.0,0.0,85,0.00,,,0.23,VWS V15.00,2014-01-12 00:40:00,
2014-01-11 19:45:00,49.9,45.6,29.30,SSW,210,3.0,3.0,85,0.00,,,0.23,VWS V15.00,2014-01-12 00:45:00,
2014-01-11 19:50:00,50.4,46.1,29.30,WSW,250,0.0,1.0,85,0.00,,,0.23,VWS V15.00,2014-01-12 00:50:00,
2014-01-11 19:55:00,50.5,46.2,29.29,SW,232,0.0,0.0,85,0.01,,,0.24,VWS V15.00,2014-01-12 00:55:00,
2014-01-11 20:00:00,50.7,46.7,29.30,WNW,286,1.0,1.0,86,0.01,,,0.24,VWS V15.00,2014-01-12 01:00:00,
2014-01-11 20:05:00,51.0,47.0,29.30,NW,309,1.0,1.0,86,0.01,,,0.24,VWS V15.00,2014-01-12 01:05:00,
2014-01-11 20:10:00,51.0,47.0,29.30,South,176,0.0,1.0,86,0.02,,,0.25,VWS V15.00,2014-01-12 01:10:00,
2014-01-11 20:15:00,51.3,47.3,29.29,SSE,148,0.0,1.0,86,0.03,,,0.26,VWS V15.00,2014-01-12 01:15:00,
2014-01-11 20:21:00,51.5,47.5,29.29,WSW,252,0.0,0.0,86,0.03,,,0.26,VWS V15.00,2014-01-12 01:21:00,
2014-01-11 20:26:00,51.6,47.6,29.28,SSW,194,0.0,0.0,86,0.03,,,0.26,VWS V15.00,2014-01-12 01:26:00,
2014-01-11 20:31:00,51.6,47.6,29.28,SSW,195,0.0,0.0,86,0.03,,,0.26,VWS V15.00,2014-01-12 01:31:00,
2014-01-11 20:36:00,52.0,48.0,29.28,WSW,253,0.0,0.0,86,0.03,,-RA,0.26,VWS V15.00,2014-01-12 01:36:00,
2014-01-11 20:41:00,52.2,48.5,29.28,WSW,253,0.0,0.0,87,0.04,,-RA,0.27,VWS V15.00,2014-01-12 01:41:00,
2014-01-11 20:46:00,52.4,48.7,29.29,WSW,253,0.0,0.0,87,0.04,,-RA,0.27,VWS V15.00,2014-01-12 01:46:00,
2014-01-11 20:51:00,52.7,49.0,29.29,WSW,253,0.0,0.0,87,0.05,,-RA,0.28,VWS V15.00,2014-01-12 01:51:00,
2014-01-11 20:56:00,52.9,49.1,29.29,West,262,2.0,2.0,87,0.04,,-RA,0.28,VWS V15.00,2014-01-12 01:56:00,
2014-01-11 21:01:00,53.7,49.9,29.28,WSW,243,4.0,4.0,87,0.05,,-RA,0.29,VWS V15.00,2014-01-12 02:01:00,
2014-01-11 21:06:00,55.2,51.7,29.29,South,184,1.0,4.0,88,0.05,,-RA,0.29,VWS V15.00,2014-01-12 02:06:00,
2014-01-11 21:11:00,55.6,51.8,29.27,West,262,2.0,4.0,87,0.05,,-RA,0.30,VWS V15.00,2014-01-12 02:11:00,
2014-01-11 21:16:00,55.8,52.0,29.27,West,270,2.0,3.0,87,0.04,,-RA,0.30,VWS V15.00,2014-01-12 02:16:00,
2014-01-11 21:21:00,55.9,52.1,29.27,SSW,210,2.0,4.0,87,0.04,,-RA,0.30,VWS V15.00,2014-01-12 02:21:00,
2014-01-11 21:26:00,55.7,51.9,29.27,WSW,240,4.0,4.0,87,0.04,,-RA,0.30,VWS V15.00,2014-01-12 02:26:00,
2014-01-11 21:31:00,55.7,51.9,29.28,West,267,3.0,7.0,87,0.04,,-RA,0.30,VWS V15.00,2014-01-12 02:31:00,
2014-01-11 21:36:00,55.5,51.7,29.28,WSW,243,3.0,3.0,87,0.04,,-RA,0.30,VWS V15.00,2014-01-12 02:36:00,
2014-01-11 21:41:00,55.4,51.6,29.28,West,267,3.0,4.0,87,0.04,,-RA,0.31,VWS V15.00,2014-01-12 02:41:00,
2014-01-11 21:46:00,55.4,51.6,29.28,SW,236,1.0,6.0,87,0.04,,-RA,0.31,VWS V15.00,2014-01-12 02:46:00,
2014-01-11 21:51:00,55.3,51.5,29.28,WSW,250,2.0,3.0,87,0.03,,-RA,0.31,VWS V15.00,2014-01-12 02:51:00,
2014-01-11 21:56:00,55.1,51.3,29.27,WSW,239,2.0,5.0,87,0.04,,-RA,0.32,VWS V15.00,2014-01-12 02:56:00,
2014-01-11 22:01:00,55.1,51.3,29.27,WSW,255,1.0,3.0,87,0.04,,-RA,0.32,VWS V15.00,2014-01-12 03:01:00,
2014-01-11 22:06:00,55.0,51.2,29.28,West,267,2.0,4.0,87,0.03,,-RA,0.32,VWS V15.00,2014-01-12 03:06:00,
2014-01-11 22:11:00,54.9,51.1,29.27,SE,134,1.0,3.0,87,0.03,,-RA,0.32,VWS V15.00,2014-01-12 03:11:00,
2014-01-11 22:16:00,54.8,51.0,29.26,WSW,250,0.0,2.0,87,0.03,,-RA,0.33,VWS V15.00,2014-01-12 03:16:00,
2014-01-11 22:21:00,54.6,50.8,29.26,SW,227,1.0,3.0,87,0.03,,-RA,0.33,VWS V15.00,2014-01-12 03:21:00,
2014-01-11 22:26:00,54.6,50.8,29.26,SSW,192,0.0,8.0,87,0.03,,-RA,0.33,VWS V15.00,2014-01-12 03:26:00,
2014-01-11 22:31:00,54.4,50.6,29.26,WSW,238,2.0,2.0,87,0.03,,-RA,0.33,VWS V15.00,2014-01-12 03:31:00,
2014-01-11 22:36:00,54.1,50.3,29.26,SSE,158,0.0,2.0,87,0.03,,-RA,0.33,VWS V15.00,2014-01-12 03:36:00,
2014-01-11 22:41:00,53.8,49.7,29.25,West,264,2.0,2.0,86,0.02,,-RA,0.33,VWS V15.00,2014-01-12 03:41:00,
2014-01-11 22:46:00,53.7,49.6,29.24,SW,222,0.0,1.0,86,0.02,,-RA,0.33,VWS V15.00,2014-01-12 03:46:00,
2014-01-11 22:51:00,53.3,49.2,29.23,SW,221,0.0,1.0,86,0.02,,-RA,0.33,VWS V15.00,2014-01-12 03:51:00,
2014-01-11 22:56:00,53.0,48.6,29.22,WSW,257,0.0,1.0,85,0.01,,-RA,0.33,VWS V15.00,2014-01-12 03:56:00,
2014-01-11 23:01:00,52.9,48.5,29.22,West,278,1.0,3.0,85,0.01,,-RA,0.33,VWS V15.00,2014-01-12 04:01:00,
2014-01-11 23:06:00,53.0,48.6,29.22,West,262,1.0,3.0,85,0.01,,-RA,0.33,VWS V15.00,2014-01-12 04:06:00,
2014-01-11 23:11:00,53.0,48.6,29.22,SW,231,1.0,2.0,85,0.01,,-RA,0.33,VWS V15.00,2014-01-12 04:11:00,
2014-01-11 23:16:00,53.0,48.6,29.22,South,171,1.0,2.0,85,0.01,,-RA,0.33,VWS V15.00,2014-01-12 04:16:00,
2014-01-11 23:21:00,52.9,48.5,29.22,WSW,246,2.0,4.0,85,0.00,,-RA,0.33,VWS V15.00,2014-01-12 04:21:00,
2014-01-11 23:26:00,52.8,48.4,29.22,WNW,293,1.0,2.0,85,0.00,,-RA,0.33,VWS V15.00,2014-01-12 04:26:00,
2014-01-11 23:31:00,52.7,48.0,29.22,WSW,256,3.0,3.0,84,0.00,,-RA,0.33,VWS V15.00,2014-01-12 04:31:00,
2014-01-11 23:36:00,52.6,47.9,29.23,South,169,2.0,4.0,84,0.00,,-RA,0.33,VWS V15.00,2014-01-12 04:36:00,
2014-01-11 23:41:00,52.7,48.0,29.23,SW,233,4.0,5.0,84,0.00,,-RA,0.33,VWS V15.00,2014-01-12 04:41:00,
2014-01-11 23:46:00,52.8,48.1,29.23,SW,233,1.0,6.0,84,0.00,,-RA,0.33,VWS V15.00,2014-01-12 04:46:00,
2014-01-11 23:51:00,52.6,47.9,29.22,West,280,2.0,3.0,84,0.00,,OVC140,0.33,VWS V15.00,2014-01-12 04:51:00,
2014-01-11 23:56:00,52.5,47.8,29.21,SSW,200,2.0,5.0,84,0.00,,OVC140,0.33,VWS V15.00,2014-01-12 04:56:00,